K5WRW-WX Weather Reports


Display with metric or nautical units.
time (UTC)temp
F
wind
direction
speed
MPH
gust
MPH
rain 1hr
in
rain 24hr
in
rain mn
in
humidity
%
barometer
mb
20260905061916 84 203 3.0 6.0 0.00 0.00 0.00 66 1012.6
20260905060936 84 203 4.0 6.0 0.00 0.00 0.00 66 1012.6
20260905055916 85 203 3.0 5.0 0.00 0.00 0.00 66 1012.5
20260905054916 85 180 5.0 6.0 0.00 0.00 0.00 66 1012.4
20260905053915 85 203 4.0 6.0 0.00 0.00 0.00 65 1012.3
20260905052915 85 203 1.0 4.0 0.00 0.00 0.00 65 1012.3
20260905051915 85 0 3.0 4.0 0.00 0.00 0.00 64 1012.2
20260905050915 86 158 2.0 5.0 0.00 0.00 0.00 64 1012.2
20260905045915 86 180 2.0 5.0 0.00 0.00 0.00 64 1012.2
20260905044915 86 0 4.0 6.0 0.00 0.00 0.00 63 1012.2
20260905043915 86 180 4.0 5.0 0.00 0.00 0.00 63 1012.4
20260905042915 86 180 3.0 4.0 0.00 0.00 0.00 63 1012.3
20260905041917 87 180 4.0 6.0 0.00 0.00 0.00 63 1012.3
20260905040917 87 203 2.0 4.0 0.00 0.00 0.00 62 1012.3
20260905035917 87 180 3.0 5.0 0.00 0.00 0.00 62 1012.4
20260905034957 87 180 3.0 4.0 0.00 0.00 0.00 62 1012.3
20260905033917 87 180 2.0 3.0 0.00 0.00 0.00 61 1012.3
20260905032917 88 158 3.0 4.0 0.00 0.00 0.00 61 1012.2
20260905031917 88 180 2.0 4.0 0.00 0.00 0.00 60 1012.2
20260905030917 88 180 2.0 5.0 0.00 0.00 0.00 59 1012.2
20260905025917 89 180 3.0 5.0 0.00 0.00 0.00 58 1012.0
20260905024937 89 180 2.0 4.0 0.00 0.00 0.00 58 1011.9
20260905023917 89 158 3.0 5.0 0.00 0.00 0.00 57 1011.7
20260905022917 90 158 2.0 4.0 0.00 0.00 0.00 56 1011.6
20260905021917 90 0 5.0 8.0 0.00 0.00 0.00 55 1011.5
20260905020917 90 135 3.0 4.0 0.00 0.00 0.00 55 1011.4
20260905015917 91 135 5.0 6.0 0.00 0.00 0.00 54 1011.2
20260905014917 91 158 4.0 7.0 0.00 0.00 0.00 53 1011.1
20260905013917 91 158 2.0 3.0 0.00 0.00 0.00 53 1011.0
20260905012917 92 158 3.0 4.0 0.00 0.00 0.00 52 1010.9
20260905011917 92 0 2.0 3.0 0.00 0.00 0.00 52 1010.9
20260905010937 93 180 4.0 5.0 0.00 0.00 0.00 51 1010.8
20260905005917 93 135 4.0 6.0 0.00 0.00 0.00 51 1010.7
20260905004917 94 135 5.0 7.0 0.00 0.00 0.00 50 1010.6
20260905003917 94 135 5.0 7.0 0.00 0.00 0.00 49 1010.5
20260905002917 95 0 6.0 11.0 0.00 0.00 0.00 48 1010.3
20260905001917 95 135 7.0 8.0 0.00 0.00 0.00 48 1010.4
20260905000917 95 0 5.0 8.0 0.00 0.00 0.00 48 1010.4
20260904235917 95 0 9.0 12.0 0.00 0.00 0.00 47 1010.4
20260904234916 96 135 6.0 9.0 0.00 0.00 0.00 47 1010.4
20260904233916 96 203 5.0 8.0 0.00 0.00 0.00 47 1010.4
20260904232916 96 0 9.0 13.0 0.00 0.00 0.00 47 1010.3
20260904231916 97 0 7.0 12.0 0.00 0.00 0.00 46 1010.4
20260904230916 97 0 7.0 9.0 0.00 0.00 0.00 46 1010.4
20260904225917 96 203 5.0 7.0 0.00 0.00 0.00 47 1010.4
20260904224916 96 0 5.0 7.0 0.00 0.00 0.00 47 1010.4
20260904223916 97 0 7.0 11.0 0.00 0.00 0.00 46 1010.5
20260904222921 97 0 7.0 11.0 0.00 0.00 0.00 45 1010.4
20260904221916 97 0 7.0 10.0 0.00 0.00 0.00 45 1010.6
20260904220916 97 180 9.0 13.0 0.00 0.00 0.00 44 1010.6
20260904215916 97 0 7.0 9.0 0.00 0.00 0.00 44 1010.6
20260904214916 98 0 11.0 14.0 0.00 0.00 0.00 43 1010.7
20260904213916 98 135 7.0 9.0 0.00 0.00 0.00 43 1010.7
20260904212916 98 0 10.0 14.0 0.00 0.00 0.00 42 1010.8
20260904211916 98 0 4.0 8.0 0.00 0.00 0.00 42 1010.9
20260904210916 97 225 8.0 9.0 0.00 0.00 0.00 42 1011.0
20260904205916 97 225 7.0 12.0 0.00 0.00 0.00 42 1011.1
20260904204916 97 180 6.0 9.0 0.00 0.00 0.00 42 1011.3
20260904203916 97 0 8.0 10.0 0.00 0.00 0.00 43 1011.3
20260904202936 97 180 7.0 10.0 0.00 0.00 0.00 44 1011.4
20260904201916 97 180 4.0 9.0 0.00 0.00 0.00 44 1011.5
20260904200916 98 0 8.0 12.0 0.00 0.00 0.00 44 1011.6
20260904195916 97 0 9.0 13.0 0.00 0.00 0.00 45 1011.7
20260904194916 96 203 7.0 9.0 0.00 0.00 0.00 46 1012.0
20260904193936 96 180 6.0 8.0 0.00 0.00 0.00 46 1012.1
20260904192916 96 180 6.0 9.0 0.00 0.00 0.00 48 1012.1
20260904191936 96 0 7.0 9.0 0.00 0.00 0.00 47 1012.3
20260904190916 96 180 4.0 6.0 0.00 0.00 0.00 47 1012.4
20260904185916 96 0 6.0 10.0 0.00 0.00 0.00 48 1012.5
20260904184916 95 225 6.0 8.0 0.00 0.00 0.00 49 1012.7
20260904183916 94 158 5.0 9.0 0.00 0.00 0.00 50 1012.8
20260904182916 94 135 11.0 15.0 0.00 0.00 0.00 48 1012.9
20260904181916 93 158 4.0 8.0 0.00 0.00 0.00 50 1013.0
20260904180916 94 203 8.0 10.0 0.00 0.00 0.00 50 1013.1
20260904175916 94 180 6.0 9.0 0.00 0.00 0.00 51 1013.4
20260904174916 93 180 6.0 9.0 0.00 0.00 0.00 50 1013.4
20260904173956 93 135 6.0 10.0 0.00 0.00 0.00 53 1013.6
20260904172916 93 180 7.0 10.0 0.00 0.00 0.00 53 1013.7
20260904171916 93 203 4.0 19.0 0.00 0.00 0.00 54 1013.8
20260904170936 92 135 7.0 11.0 0.00 0.00 0.00 56 1014.0
20260904165916 91 135 6.0 9.0 0.00 0.00 0.00 57 1014.1
20260904164916 91 225 6.0 9.0 0.00 0.00 0.00 59 1014.2
20260904163936 90 225 6.0 7.0 0.00 0.00 0.00 59 1014.2
20260904162956 90 158 4.0 7.0 0.00 0.00 0.00 62 1014.3
20260904161915 89 135 8.0 14.0 0.00 0.00 0.00 62 1014.2
20260904160936 89 180 8.0 11.0 0.00 0.00 0.00 63 1014.2
20260904155915 88 180 6.0 8.0 0.00 0.00 0.00 64 1014.2
20260904154915 88 135 6.0 9.0 0.00 0.00 0.00 66 1014.1
20260904153915 87 180 5.0 10.0 0.00 0.00 0.00 68 1014.0
20260904152915 86 135 6.0 9.0 0.00 0.00 0.00 72 1014.0
20260904151915 86 158 6.0 10.0 0.00 0.00 0.00 72 1014.0
20260904150915 85 135 4.0 8.0 0.00 0.00 0.00 75 1014.0
20260904145915 84 158 3.0 7.0 0.00 0.00 0.00 77 1013.9
20260904144915 83 180 7.0 12.0 0.00 0.00 0.00 78 1014.0
20260904143915 83 203 8.0 12.0 0.00 0.00 0.00 80 1014.0
20260904142935 82 0 5.0 9.0 0.00 0.00 0.00 82 1013.9
20260904141915 81 0 7.0 9.0 0.00 0.00 0.00 84 1013.9
20260904140935 80 203 7.0 10.0 0.00 0.00 0.00 85 1013.8
20260904135917 80 180 7.0 8.0 0.00 0.00 0.00 85 1013.7
20260904134935 79 135 3.0 4.0 0.00 0.00 0.00 87 1013.6
20260904133937 79 0 6.0 10.0 0.00 0.00 0.00 87 1013.5
20260904132917 78 0 5.0 7.0 0.00 0.00 0.00 88 1013.5
20260904131917 77 0 6.0 9.0 0.00 0.00 0.00 88 1013.4
20260904130938 76 135 4.0 6.0 0.00 0.00 0.00 88 1013.5
20260904125917 76 158 4.0 7.0 0.00 0.00 0.00 88 1013.5
20260904124917 76 180 3.0 6.0 0.00 0.00 0.00 89 1013.3
20260904123917 75 180 2.0 4.0 0.00 0.00 0.00 88 1013.2
20260904122917 75 203 1.0 2.0 0.00 0.00 0.00 88 1013.3
20260904121917 75 158 1.0 4.0 0.00 0.00 0.00 88 1013.2
20260904120917 75 135 2.0 4.0 0.00 0.00 0.00 88 1013.1
20260904115917 75 135 3.0 5.0 0.00 0.00 0.00 87 1012.9
20260904114917 75 135 5.0 8.0 0.00 0.00 0.00 87 1012.7
20260904113917 75 135 4.0 7.0 0.00 0.00 0.00 87 1012.8
20260904112917 75 158 4.0 6.0 0.00 0.00 0.00 86 1012.8
20260904111917 75 0 3.0 4.0 0.00 0.00 0.00 86 1012.7
20260904110917 75 158 2.0 2.0 0.00 0.00 0.00 86 1012.7
20260904105917 76 0 3.0 6.0 0.00 0.00 0.00 86 1012.7
20260904104917 76 135 3.0 5.0 0.00 0.00 0.00 85 1012.6
20260904103916 76 135 4.0 5.0 0.00 0.00 0.00 85 1012.5
20260904102916 76 135 3.0 6.0 0.00 0.00 0.00 85 1012.5
20260904101917 76 135 3.0 5.0 0.00 0.00 0.00 85 1012.4
20260904100917 76 0 2.0 4.0 0.00 0.00 0.00 84 1012.5
20260904095916 76 158 2.0 4.0 0.00 0.00 0.00 84 1012.6
20260904094917 76 0 2.0 5.0 0.00 0.00 0.00 83 1012.5
20260904093916 76 158 2.0 4.0 0.00 0.00 0.00 83 1012.4
20260904092917 76 135 4.0 5.0 0.00 0.00 0.00 83 1012.3
20260904091917 77 158 3.0 5.0 0.00 0.00 0.00 82 1012.4
20260904090916 77 180 1.0 2.0 0.00 0.00 0.00 82 1012.4
20260904085917 77 0.0 1.0 0.00 0.00 0.00 81 1012.3
20260904084916 77 180 2.0 5.0 0.00 0.00 0.00 81 1012.3
20260904083916 77 0 4.0 5.0 0.00 0.00 0.00 81 1012.2
20260904082916 77 158 3.0 5.0 0.00 0.00 0.00 80 1012.2
20260904081916 77 180 2.0 4.0 0.00 0.00 0.00 80 1012.2
20260904080916 77 180 3.0 5.0 0.00 0.00 0.00 79 1012.0
20260904075916 77 158 4.0 6.0 0.00 0.00 0.00 79 1012.1
20260904074916 78 180 4.0 6.0 0.00 0.00 0.00 78 1012.0
20260904073916 78 158 2.0 5.0 0.00 0.00 0.00 78 1012.1
20260904072916 78 158 2.0 5.0 0.00 0.00 0.00 78 1012.2
20260904071916 78 180 4.0 6.0 0.00 0.00 0.00 77 1012.2
20260904070916 78 180 1.0 3.0 0.00 0.00 0.00 77 1012.1
20260904065916 78 180 3.0 6.0 0.00 0.00 0.00 77 1012.2
20260904064916 78 180 4.0 6.0 0.00 0.00 0.00 77 1012.1
20260904063956 78 135 4.0 6.0 0.00 0.00 0.00 78 1012.1
20260904062916 79 180 5.0 7.0 0.00 0.00 0.00 78 1012.1